Adrian, MI

1:29 AM EST on January 20, 2017 (GMT -0500)
Lenawee County

Weather History for KADG - February, 2013

Change the Weather History Date:

Friday, February 8, 2013

  Actual Average Record
Temperature  
Mean Temperature 24 °F -  
Max Temperature 30 °F 30 °F 50 °F (1949)
Min Temperature 18 °F 11 °F -13 °F (1967)
Degree Days  
Heating Degree Days 41    
Moisture  
Dew Point 23 °F    
Average Humidity 84    
Maximum Humidity 100    
Minimum Humidity 69    
Precipitation  
Precipitation 0.11 in - - ()
Sea Level Pressure  
Sea Level Pressure 30.01 in    
Wind  
Wind Speed 11 mph (North)    
Max Wind Speed 28 mph    
Max Gust Speed 36 mph    
Visibility 6 miles    
Events Rain , Snow    
Averages and records for this station are not official NWS values.
T = Trace of Precipitation, MM = Missing Value Source: NWS Daily Summary

Daily Weather History Graph

Daily Weather History Graph

Search for Another Location

Airport or City:

Trip Planner

Search our weather history database for the weather conditions in past years. The results will help you decide how hot, cold, wet, or windy it might be!

Date:

Astronomy

Feb. 08, 2013 Rise Set
Actual Time 7:40 AM EST 6:00 PM EST
Civil Twilight 7:11 AM EST 6:29 PM EST
Nautical Twilight 6:38 AM EST 7:02 PM EST
Astronomical Twilight 6:06 AM EST 7:35 PM EST
Moon 6:09 AM EST (2/8) 4:32 PM EST (2/8)
Length of Visible Light 11h 18m
Length of Day
10h 20m
Waning Crescent, 3% of the Moon is Illuminated
Feb 8
Waning Crescent
Feb 10
New
Feb 17
First Quarter
Feb 25
Full
Mar 4
Last Quarter

Hourly Weather History & Observations

Time (EST) Temp. Windchill Dew Point Humidity Pressure Visibility Wind Dir Wind Speed Gust Speed Precip Events Conditions
12:32 AM 30.2 °F 20.8 °F 28.4 °F 93% 29.81 in 5.0 mi ESE 11.5 mph - 0.03 in Rain Light Freezing Rain
12:53 AM 30.9 °F 21.2 °F 28.9 °F 92% 29.83 in 4.0 mi East 12.7 mph - 0.05 in Rain Light Freezing Rain
1:53 AM 30.9 °F 25.2 °F 28.9 °F 92% 29.81 in 4.0 mi ENE 5.8 mph - 0.05 in Rain Light Freezing Rain
2:24 AM 30.2 °F 25.4 °F 28.4 °F 93% 29.78 in 4.0 mi ENE 4.6 mph - 0.01 in Snow Light Snow
2:29 AM 30.2 °F 26.7 °F 30.2 °F 100% 29.78 in 2.5 mi NE 3.5 mph - 0.01 in Snow Light Snow
2:53 AM 30.9 °F 25.2 °F 30.0 °F 96% 29.81 in 2.0 mi ENE 5.8 mph - 0.01 in Snow Light Snow
3:41 AM 30.2 °F 25.4 °F 30.2 °F 100% 29.76 in 3.0 mi North 4.6 mph - 0.00 in Snow Light Snow
3:53 AM 30.9 °F 24.3 °F 28.9 °F 92% 29.80 in 3.0 mi North 6.9 mph - 0.00 in Snow Light Snow
4:44 AM 30.2 °F 21.9 °F 28.4 °F 93% 29.79 in 5.0 mi NNW 9.2 mph - 0.00 in   Overcast
4:53 AM 30.9 °F 22.2 °F 28.9 °F 92% 29.82 in 6.0 mi NNW 10.4 mph - 0.00 in   Overcast
5:53 AM 30.0 °F 20.0 °F 27.0 °F 88% 29.85 in 3.0 mi North 12.7 mph - N/A   Overcast
6:31 AM 28.4 °F 18.0 °F 26.6 °F 93% 29.84 in 5.0 mi NNW 12.7 mph - N/A   Overcast
6:53 AM 28.9 °F 18.2 °F 26.1 °F 89% 29.88 in 6.0 mi NNW 13.8 mph - 0.00 in Snow Light Snow
7:19 AM 28.4 °F 19.1 °F 26.6 °F 93% 29.86 in 2.5 mi North 10.4 mph 19.6 mph 0.00 in Snow Light Snow
7:29 AM 28.4 °F 18.5 °F 26.6 °F 93% 29.87 in 3.0 mi NNW 11.5 mph 19.6 mph 0.00 in Snow Light Snow
7:53 AM 28.9 °F 18.2 °F 26.1 °F 89% 29.92 in 2.5 mi North 13.8 mph 24.2 mph 0.00 in Snow Light Snow
8:14 AM 28.4 °F 17.0 °F 24.8 °F 86% 29.90 in 2.0 mi North 15.0 mph 24.2 mph 0.00 in Snow Light Snow
8:17 AM 28.4 °F 17.0 °F 26.6 °F 93% 29.90 in 1.8 mi North 15.0 mph 20.7 mph 0.00 in Snow Light Snow
8:27 AM 28.4 °F 17.0 °F 26.6 °F 93% 29.91 in 2.0 mi North 15.0 mph - 0.00 in Snow Light Snow
8:41 AM 28.4 °F 16.2 °F 24.8 °F 86% 29.92 in 3.0 mi North 17.3 mph 27.6 mph 0.00 in Snow Light Snow
8:53 AM 28.9 °F 16.5 °F 25.0 °F 85% 29.96 in 5.0 mi North 18.4 mph 28.8 mph 0.00 in   Overcast
9:53 AM 28.9 °F 15.8 °F 24.1 °F 82% 30.01 in 10.0 mi North 20.7 mph 32.2 mph N/A   Overcast
10:53 AM 28.9 °F 14.0 °F 21.9 °F 75% 30.06 in 10.0 mi North 27.6 mph 35.7 mph N/A   Overcast
11:53 AM 27.0 °F 13.5 °F 21.0 °F 78% 30.11 in 10.0 mi North 19.6 mph 27.6 mph N/A   Overcast
12:53 PM 27.0 °F 14.3 °F 19.9 °F 75% 30.13 in 10.0 mi North 17.3 mph 26.5 mph N/A   Mostly Cloudy
1:53 PM 27.0 °F 15.2 °F 19.9 °F 75% 30.16 in 10.0 mi NNW 15.0 mph 24.2 mph N/A   Overcast
2:53 PM 27.0 °F 15.2 °F 19.0 °F 72% 30.17 in 10.0 mi North 15.0 mph 23.0 mph N/A   Overcast
3:53 PM 28.0 °F 18.6 °F 19.9 °F 72% 30.19 in 10.0 mi North 10.4 mph - N/A   Overcast
4:42 PM 28.4 °F 18.0 °F 19.4 °F 69% 30.19 in 10.0 mi North 12.7 mph - N/A   Mostly Cloudy
4:53 PM 28.0 °F 17.5 °F 19.0 °F 69% 30.23 in 10.0 mi North 12.7 mph 19.6 mph N/A   Mostly Cloudy
5:53 PM 27.0 °F 17.3 °F 18.0 °F 69% 30.26 in 10.0 mi North 10.4 mph - N/A   Scattered Clouds
6:53 PM 25.0 °F 18.1 °F 17.1 °F 72% 30.29 in 10.0 mi NNW 5.8 mph - N/A   Clear
7:53 PM 24.1 °F 18.2 °F 16.0 °F 71% 30.32 in 10.0 mi NNW 4.6 mph - N/A   Clear
8:53 PM 21.9 °F 17.2 °F 15.1 °F 75% 30.33 in 10.0 mi North 3.5 mph - N/A   Clear
9:53 PM 19.9 °F 13.4 °F 14.0 °F 78% 30.36 in 10.0 mi NW 4.6 mph - N/A   Clear
10:53 PM 18.0 °F 11.1 °F 14.0 °F 84% 30.38 in 10.0 mi North 4.6 mph - N/A   Clear
11:53 PM 19.0 °F 12.3 °F 12.9 °F 77% 30.39 in 10.0 mi North 4.6 mph - N/A   Clear